Location: New Town
(33.2710°N, 90.7534°W)
Time: 13:35:15
(UTC+00:00)

Explorer 11/Cluster Stage 4 - Pass Details

Date: 18 May 2021
Orbit: 467 x 1257 km, 28.8° (Epoch: 14 June)

Event Time Altitude Azimuth Distance (km) Brightness Sun altitude
Rises 23:00:34 0° 229° (SW) 3,488 10.5 22.7°
Reaches altitude 10° 23:03:11 10° 220° (SW) 2,671 9.8 22.1°
Maximum altitude 23:09:06 35° 156° (SSE) 1,671 8.2 20.9°
Drops below altitude 10° 23:16:00 10° 95° (E) 3,120 9.1 19.5°
Sets 23:19:17 0° 87° (E) 4,149 9.7 18.8°
